Theta_e
301 296 294 297 298 297 297 295 294 298 301 299 297 297 299 302 303 302 303 304 305 305 308 308 308 309 309 310 309 309 308 310 311 312 313 315 315 317 317 318 318 316 314 312
296 293 299 301 299 296 296 294 294 298 300 296 296 295 299 301 302 303 303 303 304 305 305 306 307 308 307 306 307 307 307 308 308 310 312 313 314 315 316 316 315 315 313 311
295 299 300 297 297 295 295 294 294 293 296 297 296 294 299 302 304 303 303 303 303 304 303 302 303 303 304 303 304 304 305 306 307 308 308 310 311 311 309 311 311 312 311 310
297 299 296 295 294 296 291 297 295 294 291 289 296 287 295 300 301 302 302 303 303 302 301 300 300 300 300 301 303 302 304 303 305 306 305 305 305 304 306 307 308 309 309 308
296 294 293 293 294 296 293 294 293 293 291 291 292 288 294 299 297 298 300 298 299 299 298 298 298 298 298 300 300 301 300 301 301 304 303 303 303 305 306 306 306 306 306 306
295 296 295 296 296 295 295 293 294 294 292 286 293 291 292 294 296 297 297 297 297 297 297 297 297 297 296 297 298 299 298 298 300 299 299 299 300 301 302 303 303 304 304 304
296 294 296 296 292 294 292 291 286 286 286 285 295 291 293 298 300 297 296 295 296 297 296 296 295 295 294 294 295 295 296 294 295 297 297 297 297 298 299 300 300 302 301 301
289 288 293 296 294 294 293 293 287 280 283 287 292 286 291 299 298 297 297 297 296 295 296 295 295 295 295 293 294 294 293 293 293 293 295 296 296 296 296 298 298 299 299 301
290 290 294 295 296 295 293 288 293 286 287 284 287 291 296 300 296 296 295 295 294 293 293 292 293 293 294 293 293 293 293 293 293 292 293 294 295 294 294 295 296 297 298 297
294 287 296 295 294 295 291 292 286 287 278 278 284 287 288 293 293 293 292 291 291 291 291 291 291 291 291 292 292 292 293 292 292 292 292 292 293 293 294 293 293 294 295 296
294 291 290 294 291 290 290 289 289 288 286 280 279 284 294 293 292 290 289 290 289 289 289 289 288 289 290 290 290 290 290 290 290 290 290 291 291 291 292 292 292 292 292 293
296 291 286 288 294 295 293 290 290 283 282 285 283 283 296 295 290 289 288 289 288 288 288 286 286 287 287 287 288 288 289 288 288 288 288 289 290 289 288 288 290 291 291 292
293 288 281 284 288 292 289 290 289 288 287 282 280 283 294 294 292 288 286 287 287 286 287 285 285 285 286 286 286 286 287 287 287 287 287 287 288 287 286 286 287 288 290 290
292 286 284 280 284 286 283 285 286 285 280 281 281 283 287 289 287 286 285 285 284 284 286 286 284 284 285 285 285 286 286 287 287 286 286 286 286 285 284 285 285 285 287 288
288 281 284 285 285 283 281 281 282 280 282 277 280 281 284 286 283 284 285 284 283 282 283 284 283 283 284 285 285 285 286 286 286 285 285 285 286 286 283 283 283 284 284 285
284 280 281 277 281 281 279 281 281 281 280 280 281 280 287 283 282 282 281 281 281 282 283 284 284 284 284 284 284 285 285 285 286 284 283 284 284 284 282 282 282 282 282 283
281 280 277 274 279 277 272 276 278 279 282 281 276 279 280 279 279 279 280 281 281 282 283 283 284 284 285 285 285 284 285 285 284 283 283 283 283 282 281 281 280 280 280 281
279 277 277 272 272 265 276 280 280 278 279 281 280 281 280 278 280 281 282 281 282 282 283 283 285 285 285 286 285 285 284 284 283 282 282 282 282 281 280 279 278 278 278 278
281 278 273 269 270 273 275 278 277 275 275 280 279 280 280 280 280 279 283 283 283 283 284 285 286 286 286 284 284 283 282 282 281 280 280 281 280 279 278 276 276 276 275 276
278 279 275 271 266 264 274 277 279 278 270 279 280 279 279 279 273 277 283 283 283 285 285 285 285 284 283 283 282 280 279 279 279 279 279 280 280 278 276 276 275 274 274 275
272 273 271 271 269 272 279 278 279 268 271 279 280 280 279 278 280 282 283 283 284 283 283 283 282 280 280 280 279 277 277 277 278 278 278 278 278 277 276 275 274 273 272 272
271 269 269 270 267 265 280 278 272 278 280 280 281 280 280 280 281 281 281 281 280 280 279 279 277 276 276 276 274 273 273 275 275 274 273 272 272 274 274 271 271 270 270 269
269 274 272 273 272 280 281 281 282 283 281 281 281 282 281 279 278 279 278 277 277 276 275 274 273 272 272 272 271 269 269 270 269 267 266 266 267 267 268 268 268 268 268 267
276 279 274 274 277 278 280 282 283 283 282 283 282 279 277 275 276 274 274 273 272 272 271 271 269 268 267 268 267 266 266 265 262 261 261 262 262 263 263 265 265 265 265 266
278 278 276 275 278 279 280 281 282 282 282 278 277 275 274 274 272 271 270 270 269 269 268 268 266 265 264 265 264 263 263 262 260 260 260 260 260 260 261 262 263 264 265 266
279 277 274 273 279 278 279 282 281 279 278 276 273 273 272 270 269 269 267 268 267 266 265 264 264 263 262 262 261 261 261 260 259 258 259 259 259 259 260 260 260 265 267 268
Wind_Speed
9 9 12 17 16 19 20 19 21 19 19 21 21 20 18 21 20 21 20 14 9 5 6 9 9 10 9 9 7 6 2 4 5 6 7 7 8 6 8 8 11 11 11 13
5 13 15 15 9 13 17 21 21 17 13 6 16 20 26 20 21 11 11 9 6 5 8 13 16 17 17 17 16 14 9 3 4 5 6 6 6 8 8 8 9 11 12 12
18 14 6 8 14 17 18 20 19 21 19 13 14 16 6 9 12 3 4 2 2 6 14 17 18 20 19 20 18 16 15 12 7 4 4 4 6 5 5 6 7 10 13 13
13 8 9 13 18 16 19 15 13 12 7 10 8 9 14 6 8 6 7 12 14 18 18 17 17 18 19 18 15 18 17 16 11 9 5 8 7 8 7 7 6 8 11 14
3 3 4 8 8 5 6 2 6 8 11 16 12 9 4 6 4 12 11 16 16 18 17 16 17 17 16 16 15 16 17 16 16 12 10 8 8 6 6 7 9 8 9 12
19 1 5 11 2 7 3 6 12 11 8 10 12 11 3 2 11 8 15 15 14 14 14 14 14 13 14 14 13 14 15 16 15 14 14 14 13 12 9 7 8 6 6 7
9 15 6 6 7 5 6 8 7 8 8 12 8 8 9 4 14 7 11 11 12 11 12 11 12 12 12 12 10 10 15 15 15 15 14 12 11 12 12 11 8 9 6 7
13 11 11 11 8 7 8 6 8 7 11 16 13 15 9 7 12 13 12 11 10 11 13 14 12 11 11 13 15 14 14 13 13 13 13 12 12 8 8 9 9 9 9 7
10 11 5 5 1 2 2 7 6 6 14 11 16 22 20 16 10 11 11 11 14 15 15 15 15 15 14 13 13 13 13 12 12 12 10 11 10 11 10 12 10 9 10 9
4 11 7 3 2 8 7 2 6 5 6 18 20 19 14 12 8 8 10 10 10 10 10 12 13 14 14 15 15 16 16 16 15 14 13 11 12 12 10 9 11 12 12 12
7 7 17 13 11 14 9 10 11 11 10 15 20 18 12 8 8 8 8 7 9 10 10 10 10 12 12 12 12 13 14 15 14 14 14 13 12 12 11 10 11 10 12 11
7 6 14 21 22 22 20 21 20 15 19 15 18 20 19 10 11 10 11 6 5 5 8 8 9 9 11 12 12 12 12 12 12 12 12 12 12 13 12 12 13 12 13 11
4 3 7 12 10 3 5 7 8 12 7 19 18 15 9 15 14 10 6 5 6 7 5 7 8 9 10 11 12 13 12 12 11 12 11 11 10 11 12 13 12 13 13 14
4 3 8 11 17 11 8 11 15 11 6 9 12 17 22 22 15 12 6 7 7 8 7 7 7 8 9 10 10 11 12 13 12 11 11 11 11 10 10 11 12 12 12 13
2 9 10 15 17 17 15 17 19 17 20 16 22 23 21 20 11 9 7 8 9 11 11 9 9 8 9 9 10 11 12 12 12 13 13 12 11 10 10 10 10 11 11 11
2 8 6 10 12 15 18 22 20 21 22 25 25 27 16 6 3 8 11 13 15 15 15 14 12 12 11 9 10 11 12 12 10 12 12 13 13 11 10 10 10 11 11 11
4 5 5 18 15 15 13 19 21 22 23 21 18 10 6 0 4 10 15 18 17 17 18 17 16 15 12 12 11 13 12 11 11 12 12 12 13 13 12 12 12 12 13 13
10 4 6 10 1 14 11 4 8 9 10 4 5 4 4 1 7 14 15 17 17 17 17 16 15 16 15 14 12 13 12 12 12 13 13 13 13 13 12 12 13 14 13 14
17 12 7 6 10 16 18 10 4 5 8 3 10 5 4 8 17 18 15 17 17 17 16 15 15 15 14 15 14 15 14 14 14 14 14 14 14 12 11 12 13 13 13 14
7 13 10 6 8 10 4 4 4 2 10 4 4 1 6 13 12 13 17 16 15 15 13 15 14 14 14 15 16 17 18 17 17 16 16 15 14 13 13 13 11 12 12 16
4 6 14 14 13 10 2 6 3 5 5 6 5 9 13 12 11 15 15 16 15 12 14 15 15 15 16 16 16 17 18 20 19 19 19 18 16 16 14 11 11 11 14 16
7 6 7 6 9 14 1 6 7 4 12 15 14 17 15 15 14 15 16 15 16 17 17 16 15 16 16 17 16 20 21 20 19 19 19 18 17 13 10 13 13 14 15 17
7 11 8 9 4 3 8 6 10 13 14 15 14 14 12 11 13 14 13 15 15 16 15 15 15 18 17 17 16 20 20 20 20 19 19 18 17 16 14 15 16 14 15 15
13 18 14 14 16 22 18 18 17 16 14 14 8 6 6 9 10 12 12 13 13 14 14 14 16 18 20 17 17 18 19 19 19 21 20 19 19 19 18 15 15 16 16 15
12 9 13 15 20 19 21 19 21 16 6 2 2 4 7 8 9 11 12 13 13 15 14 14 15 17 20 19 19 18 18 18 18 18 18 17 15 17 16 15 13 14 15 17
17 19 14 15 19 16 19 16 4 5 7 3 4 6 5 6 10 11 11 11 13 13 15 14 15 17 19 19 19 19 17 17 18 18 15 14 14 14 14 14 14 24 31 34
Wind_Direction
197 220 221 240 235 255 283 289 282 288 294 288 289 299 297 287 281 269 288 302 319 10 41 41 34 36 35 46 36 12 308 217 214 206 221 230 238 232 231 235 239 227 215 209
187 235 252 263 273 290 278 277 280 281 279 300 289 295 280 281 270 282 305 306 323 34 50 53 41 41 38 30 25 15 14 344 219 223 216 235 234 237 238 225 232 232 230 218
253 275 352 281 260 263 261 272 282 287 305 285 290 286 251 246 257 270 29 343 358 71 63 44 41 37 28 23 19 20 17 12 352 304 278 261 269 274 262 243 234 226 224 219
266 310 276 265 260 266 279 283 287 286 290 286 12 294 295 302 272 140 95 57 36 55 65 48 43 40 31 21 20 21 20 19 16 350 297 280 278 277 263 249 241 242 227 229
265 199 216 242 246 249 254 335 278 273 268 287 269 242 253 257 256 90 84 67 59 60 56 47 39 37 32 24 25 21 26 27 20 1 347 323 299 289 290 287 271 252 233 230
259 69 254 245 222 226 29 273 260 263 266 256 257 234 302 334 136 153 79 77 71 65 53 43 43 37 38 32 27 22 22 29 24 20 9 352 334 323 307 296 290 263 255 236
250 219 221 231 243 188 224 271 286 258 225 255 300 281 248 285 288 73 106 91 80 67 56 52 48 40 33 25 23 26 30 26 18 16 15 6 349 330 316 316 303 290 264 249
279 273 196 164 233 313 202 259 273 294 280 296 302 267 258 324 90 105 101 90 73 51 38 33 31 23 22 24 21 19 16 13 16 13 10 7 2 344 326 315 310 302 294 270
282 243 110 184 118 308 19 229 278 272 272 273 269 272 274 258 129 101 86 63 39 25 19 17 14 15 14 14 12 13 10 9 11 9 7 3 5 358 344 328 314 303 285 281
318 286 246 355 155 213 230 30 259 213 244 257 272 279 285 282 108 60 45 44 40 33 23 14 10 5 5 4 2 1 5 0 1 0 358 358 355 354 352 345 329 312 301 290
308 274 276 283 231 255 224 243 228 262 251 266 274 270 298 52 65 67 37 31 13 10 5 6 4 358 357 356 358 358 358 356 357 352 349 349 350 349 346 346 344 328 307 297
277 296 288 274 282 290 286 279 273 261 267 245 249 257 285 12 89 43 1 21 18 354 344 357 0 354 351 351 352 351 350 347 352 343 343 343 344 348 346 340 338 333 324 310
25 237 287 292 262 35 319 344 343 320 296 257 264 261 347 326 333 54 346 338 326 333 326 334 342 341 340 340 337 339 340 337 340 338 335 334 337 341 336 332 332 331 331 328
97 238 240 258 292 328 280 289 290 277 257 283 270 294 293 297 331 357 347 332 328 323 302 295 317 322 325 320 323 321 322 325 329 330 325 325 327 330 328 324 326 328 327 323
270 257 262 269 287 294 282 277 272 269 269 264 281 282 284 299 322 320 316 324 317 322 321 303 314 309 307 304 304 310 308 310 317 320 317 313 317 308 311 308 317 317 314 315
164 267 302 274 271 273 276 269 267 271 266 263 266 268 285 37 299 320 338 333 325 319 322 316 301 304 313 311 306 298 289 290 300 297 298 302 306 304 306 309 309 309 311 312
230 239 253 268 288 308 280 263 260 261 260 271 280 318 42 130 344 347 332 327 318 317 318 318 309 303 309 315 317 310 300 284 275 275 280 285 291 296 302 306 310 310 315 312
246 223 253 278 343 252 258 344 278 279 284 267 260 228 175 251 320 322 317 309 309 317 313 311 309 304 303 304 311 312 299 284 276 269 270 272 277 276 285 297 297 305 307 309
233 240 244 244 235 288 299 291 261 279 296 267 253 264 235 301 318 300 303 325 317 312 309 306 301 299 305 308 310 308 300 291 285 279 277 270 264 263 271 279 284 295 300 295
225 227 226 191 246 265 0 117 90 158 281 89 118 229 281 300 292 296 318 313 304 302 303 309 320 315 304 307 314 305 299 295 290 292 289 282 275 265 254 259 272 286 288 291
167 212 226 234 245 259 292 140 152 263 327 138 210 299 301 286 290 308 312 308 315 321 316 315 316 311 308 313 315 307 303 297 301 301 295 288 282 278 264 265 272 283 288 290
201 204 213 237 259 268 189 135 225 303 325 307 304 299 297 296 299 303 305 311 315 317 319 322 316 309 314 320 319 306 299 305 309 310 308 312 313 312 300 288 284 282 284 283
235 229 247 215 241 231 188 258 239 285 290 291 291 291 305 296 298 309 312 316 315 315 316 317 313 310 309 312 313 305 308 314 314 314 311 308 305 300 295 291 287 286 282 278
255 250 251 261 253 261 272 273 271 273 279 294 310 310 305 294 307 307 309 311 313 311 313 317 313 307 304 310 309 304 310 313 310 305 304 302 298 296 290 283 280 276 274 271
246 274 253 254 259 266 263 265 267 274 270 237 257 296 301 310 305 307 307 308 311 311 313 315 308 302 300 308 307 307 306 306 301 299 298 295 291 289 289 283 283 278 276 274
246 253 256 260 265 260 270 276 326 233 227 235 292 295 304 315 305 310 304 309 311 313 314 306 302 300 302 304 304 303 302 300 298 296 293 291 291 287 285 285 283 276 281 282